Regional Weather Roundup
Issued by NWS

Home | Current Version | Previous Version | Text Only | Print | Product List | Glossary On
Versions: 1 2 3 4 5 6 7 8 9 10 11 12 13 14 15 16 17 18 19 20 21 22 23 24 25 26 27 28 29 30 31 32 33 34 35 36 37 38 39 40 41 42 43 44 45 46 47 48 49
000
ASUS42 KTBW 101910
RWRFL
FLORIDA REGIONAL WEATHER ROUNDUP
NATIONAL WEATHER SERVICE TAMPA BAY RUSKIN FL
300 PM EDT THU JUL 10 2014

NOTE: "FAIR" INDICATES FEW OR NO CLOUDS BELOW 12,000 FEET WITH NO
SIGNIFICANT WEATHER AND/OR OBSTRUCTIONS TO VISIBILITY.


FLZ001>010-012>015-112-114-115-102000-
PANHANDLE FLORIDA

CITY           SKY/WX    TMP DP  RH WIND       PRES   REMARKS
PENSACOLA      CLOUDY    84  71  65 S10       30.07S
PENSACOLA NAS  PTSUNNY   88  71  57 SW13      30.06F
MILTON NAS     PTSUNNY   89  70  53 VRB5      30.06F
CRESTVIEW      SUNNY     92  72  51 NW8       30.06F HX  99
DUKE FIELD     PTSUNNY   91  69  49 SW6       30.05F HX  96
VALPARAISO     PTSUNNY   88  76  68 S14       30.06S HX  98
MARY ESTHER    PTSUNNY   85  71  61 SW10      30.05F
TRI COUNTY       N/A     90  70  51 CALM      30.06S HX  95
PANAMA CITY    LGT RAIN  79  74  84 E6        30.06F
TYNDALL AFB    PTSUNNY   84  73  69 SW8       30.10S
APALACHICOLA   CLOUDY    84  74  71 SW7       30.10S

STATION/POSITION SKY/WX   TEMP    WIND        PRES    WAVE   SWELL
                          AIR SEA DIR/SP/G            HT/PER HT/PER
                          (F)     (DEG/KT/KT) (MB)    (FT/S) (FT/S)
30.1N   87.6W              82 85  240/ 10/ 10 1018.6F   1/ 4
29.2N   88.2W              81 87  240/ 12/ 19 1019.4F
28.8N   86.0W              80 85  180/  4/ 10 1020.3    1/ 4
PANAMA CITY BEAC           83 82  210/  9/ 11 1018.4F
CAPE SAN BLAS    NOT AVBL
TOWER C                    77     210/ 22/ 24 1019.3S
28.5N   84.5W              83 86  220/  4/  6 1019.3F   1/ 8

$$
FLZ011-016>038-118-127-128-134-139-239-102000-
NORTH FLORIDA

CITY           SKY/WX    TMP DP  RH WIND       PRES   REMARKS
MARIANNA       LGT RAIN  88  71  57 S24G30    30.06S
TALLAHASSEE    LGT RAIN  76  71  85 CALM      30.11S
PERRY          CLOUDY    88  72  58 W15G22    30.09F
CROSS CITY       N/A     78  73  84 CALM      30.11S
GAINESVILLE    PTSUNNY   79  70  74 N7        30.11S
MAYPORT NAS    PTSUNNY   85  73  67 S18       30.09S THUNDER
JACKSONVILLE   PTSUNNY   86  71  60 S21       30.07S THUNDER
JAX NAS        TSTM      82  71  69 SW17      30.11R
JAX CRAIG      TSTM      75  70  84 W9G18     30.12R VSB 1/2
JAX CECIL      RAIN      73  72  94 W6        30.14R
FERNANDINA BEA FAIR      88  72  58 SE15G21   30.07S
ST AUGUSTINE   TSTM      77  71  82 W6        30.11F

STATION/POSITION SKY/WX   TEMP    WIND        PRES    WAVE   SWELL
                          AIR SEA DIR/SP/G            HT/PER HT/PER
                          (F)     (DEG/KT/KT) (MB)    (FT/S) (FT/S)
SHELL POINT                77     330/  4/  5   N/A
KEATON BEACH               80     190/ 10/ 11 1019.4F
CEDAR KEY                  81      90/  1/  2 1019.8F
FERNANDINA                 86 85  130/  8/ 16 1017.9S
30.7N   81.3W                 85                N/A     2/ 9
MAYPORT                    83 86  160/  9/ 15   N/A
31.4N   80.9W              82 85  180/ 12/ 14 1018.3F   2/ 9   2/ 9
ST AUGUSTINE               82     170/  8/  9 1020.3F

$$
FLZ040-043>046-052-053-057-058-063-144-102000-
INTERIOR CENTRAL FLORIDA

CITY           SKY/WX    TMP DP  RH WIND       PRES   REMARKS
OCALA          MOSUNNY   88  70  55 CALM      30.10F
LEESBURG       MOSUNNY   91  70  49 W3        30.09F HX  96
SANFORD        MOSUNNY   91  72  53 E9        30.07F HX  98
ORLANDO EXEC   PTSUNNY   90  72  55 SE6       30.07F HX  96
ORLANDO INTL   PTSUNNY   91  71  51 SE8       30.07F HX  97
KISSIMMEE      PTSUNNY   90  72  55 CALM      30.08F HX  96
WINTER HAVEN   PTSUNNY   89  71  55 SE13      30.09F HX  95
LAKELAND       PTSUNNY   90  70  51 E6        30.08F HX  95
BARTOW         LGT RAIN  79  75  89 E7        30.10F
OKEECHOBEE     MOSUNNY   84  73  70 MISG      30.10F

$$
FLZ041-047-054-059-064-141-147-102000-
EAST CENTRAL FLORIDA

CITY           SKY/WX    TMP DP  RH WIND       PRES   REMARKS
ORMOND BEACH   MOSUNNY   84  72  65 SE7       30.12S
DAYTONA BEACH  PTSUNNY   83  74  74 S5        30.11F THUNDER
DELAND         MOCLDY    81  72  74 N12       30.13R
NEW SMYRNA BEA MOSUNNY   84  72  65 E8        30.11F
JFK SPACE CTR  MOSUNNY   89  75  64 SE12      30.08F HX  99
TITUSVILLE     MOSUNNY   90  73  58 E12       30.09F HX  98
CAPE CANAVERAL SUNNY     87  75  68 SE13G18   30.08F HX  96
PATRICK AFB    SUNNY     87  76  71 SE16      30.09F HX  97
MELBOURNE      MOSUNNY   87  75  67 SE15      30.09F HX  96
VERO BEACH     MOSUNNY   84  76  76 SE8       30.11F
FT PIERCE      PTSUNNY   83  74  74 S7        30.10F
STUART         PTSUNNY   90  70  51 SE8       30.11F HX  95

STATION/POSITION SKY/WX   TEMP    WIND        PRES    WAVE   SWELL
                          AIR SEA DIR/SP/G            HT/PER HT/PER
                          (F)     (DEG/KT/KT) (MB)    (FT/S) (FT/S)
28.5N   80.2W              81 84  130/  8/ 10 1020.3F
28.9N   78.5W              80 83  210/  4/  6 1020.8F   3/ 9   2/ 9
TRIDENT PIER               87 85  120/  5/ 10 1018.8F
28.4N   80.5W                 85                N/A     1/ 9
27.6N   80.2W                 84                N/A     1/ 8

$$
FLZ050-056-061-142-242-148-248-149-249-151-251-155-255-
160-260-102000-
WEST CENTRAL FLORIDA

CITY           SKY/WX    TMP DP  RH WIND       PRES   REMARKS
CRYSTAL RIVER  CLOUDY    90  72  55 CALM      30.08F HX  96
INVERNESS      FAIR      86  70  58 NE5       30.09F
BROOKSVILLE    PTSUNNY   81  72  74 N6        30.10S
ZEPHYRHILLS    FAIR      90  68  48 E5        30.08F
CLEARWATER     MOSUNNY   90  72  55 N6        30.08F HX  97
TAMPA INTL     PTSUNNY   88  70  55 SW8       30.08F
TAMPA EXEC       N/A    N/A N/A N/A MISG        N/A
PLANT CITY     PTSUNNY   90  68  48 CALM      30.09F
MACDILL AFB    MOSUNNY   89  78  68 VRB1      30.09F HX 103
PETER O KNIGHT PTSUNNY   90  77  66 W6        30.08F HX 102
ST PETERSBURG  MOSUNNY   87  76  69 SE8       30.06F HX  97
SARASOTA       MOSUNNY   91  71  51 SW8       30.07F HX  97
VENICE         FAIR      86  75  70 SW7       30.09F HX  95

STATION/POSITION SKY/WX   TEMP    WIND        PRES    WAVE   SWELL
                          AIR SEA DIR/SP/G            HT/PER HT/PER
                          (F)     (DEG/KT/KT) (MB)    (FT/S) (FT/S)
CEDAR KEY                  81      90/  1/  2 1019.8F
28.5N   84.5W              83 86  220/  4/  6 1019.3F   1/ 8
27.3N   84.3W                 89                N/A     1/ 8
CLEARWATER BEACH           84 87  270/  3/  5 1018.4F
MIDDLE TAMPA BAY           84     270/  6/  8 1019.0F
VENICE                     85 88  220/  6/  6 1018.2F

$$
FLZ066-069-070-075>078-162-262-165-265-102000-
SOUTHWEST FLORIDA AND KEYS

CITY           SKY/WX    TMP DP  RH WIND       PRES   REMARKS
PUNTA GORDA    CLOUDY    83  74  74 SW6       30.10F
FT MYERS       CLOUDY    76  71  85 CALM      30.08F HAZE
SOUTHWEST INTL PTSUNNY   78  70  76 N6        30.09F
NAPLES         MOSUNNY   88  77  69 W12       30.07F HX 100
MARATHON       SUNNY     91  76  61 VRB6      30.08F HX 103
KEY WEST NAS   CLOUDY    90  76  63 E8        30.08F THUNDER HX 101
KEY WEST INTL  CLOUDY    91  75  59 E10       30.09S THUNDER HX 101

STATION/POSITION SKY/WX   TEMP    WIND        PRES    WAVE   SWELL
                          AIR SEA DIR/SP/G            HT/PER HT/PER
                          (F)     (DEG/KT/KT) (MB)    (FT/S) (FT/S)
VENICE                     85 88  220/  6/  6 1018.2F
NAPLES                     85     260/  8/ 11 1018.9F
DRY TORTUGAS               85      60/  6/  7 1018.6F
NW FL BAY                  86     150/  7/  8 1019.5F
SAND KEY                   85     120/  9/ 11 1018.6F
SOMBRERO KEY               87     110/ 10/ 12 1019.3F
LONG KEY                   85 88  140/ 11/ 12 1019.9F
MOLASSES REEF              83 85  120/  9/ 10 1019.0F

$$
FLZ067-068-071>074-168-172>174-102000-
SOUTHEAST FLORIDA

CITY           SKY/WX    TMP DP  RH WIND       PRES   REMARKS
W PALM BEACH   PTSUNNY   85  74  69 SE10      30.10F
FT LAUDER-EXEC PTSUNNY   80  73  79 NW6       30.11S THUNDER
FT LAUDERDALE  TSTM      78  74  87 SE14      30.10S FOG
POMPANO BEACH    N/A     86  72  62 E9        30.11F
PEMBROKE PINES CLOUDY    80  73  79 W8        30.12S
OPA LOCKA      TSTM      77  70  79 W9        30.11S
MIAMI          TSTM      84  75  74 E14       30.10F
WEST KENDALL   PTSUNNY   80  74  81 NE3       30.10F
HOMESTEAD      MOSUNNY   79  72  78 W8        30.10F

STATION/POSITION SKY/WX   TEMP    WIND        PRES    WAVE   SWELL
                          AIR SEA DIR/SP/G            HT/PER HT/PER
                          (F)     (DEG/KT/KT) (MB)    (FT/S) (FT/S)
PORT EVERGLADES            81     160/ 14/ 20 1019.6
VIRGINIA KEY               80 85   70/ 11/ 14   N/A
LAKE WORTH                 83 84              1019.3F
FOWEY ROCKS                84 85  120/ 11/ 12 1019.4F
SETTLEMENT POINT           78      60/  7/  8 1020.8F

$$



USA.gov is the U.S. government's official web portal to all federal, state and local government web resources and services.